Header for Extended Forecast Station List Page

Search by: ID | Name | Date | Parm | Value | Avg | % Avg
Sort by: ID | Name | Date | Parm | Value | Avg | % Avg

Enter search or view all records.

Click on id for station plot
#IDNameDateParmValueAvg% Avg
0LYDM8KOOTENAI-LIBBY DAM10-19-2020INFLOW (KAF)80390589
1LEOI1KOOTENAI-AT LEONIA10-19-2020DISCHARGE (KAF)24721563158
2BFEI1KOOTENAI-AT BONNERS FERRY10-19-2020STAGE (FT)MMM
3FCFM8NF FLATHEAD-NEAR COLUMBIA FALLS10-19-2020DISCHARGE (KAF)14119274
4WGCM8MF FLATHEAD-NEAR WEST GLACIER10-19-2020DISCHARGE (KAF)10216960
5HHWM8SF FLATHEAD-HUNGRY HORSE DAM10-19-2020INFLOW (KAF)23424695
6CFMM8FLATHEAD-AT COLUMBIA FALLS10-19-2020DISCHARGE (KAF)899118676
7DLGM8CLARK FORK-AT DEER LODGE10-19-2020DISCHARGE (KAF)7863124
8DRMM8CLARK FORK-NR DRUMMOND10-19-2020DISCHARGE (KAF)155MM
9RCCM8ROCK CREEK-NEAR CLINTON10-19-2020DISCHARGE (KAF)6349128
10BONM8BLACKFOOT-NEAR BONNER10-19-2020DISCHARGE (KAF)173136127
11ABOM8CLARK FORK-ABOVE MISSOULA10-19-2020DISCHARGE (KAF)407345118
12BITM8BITTERROOT-NEAR MISSOULA10-19-2020DISCHARGE (KAF)240228105
13BELM8CLARK FORK-BELOW MISSOULA10-19-2020DISCHARGE (KAF)645577112
14STRM8ST. REGIS-NEAR ST. REGIS10-19-2020DISCHARGE (KAF)193850
15SRGM8CLARK FORK-AT ST REGIS10-19-2020DISCHARGE (KAF)792755105
16KERM8FLATHEAD-SELI’Š KSANKA QLISPE’ DAM10-19-2020INFLOW (KAF)1049150470
17NOXM8CLARK FORK-NOXON RAPIDS DAM10-19-2020INFLOW (KAF)2760352578
18CABI1CLARK FORK-CABINET GORGE DAM10-19-2020INFLOW (KAF)3028367982
19PRTI1PRIEST-NEAR PRIEST RIVER10-19-2020DISCHARGE (KAF)16523869
20ALFW1PEND OREILLE-ALBENI FALLS DAM10-19-2020INFLOW (KAF)3264429176
21HOPI1PEND OREILLE-PEND OREILLE LAKE NR HOPE10-19-2020LAKE ELEVATION (FT)MMM
22COEI1COEUR D ALENE-COEUR D ALENE LAKE10-19-2020INFLOW (KAF)39767359
23SPOW1SPOKANE-AT SPOKANE10-19-2020DISCHARGE (KAF)537MM
24LLKW1SPOKANE-AT LONGLAKE10-19-2020INFLOW (KAF)734113864
25SATI1ST MARIES-NEAR SANTA10-19-2020DISCHARGE (KAF)213364
26SJMI1ST JOE-AT ST MARIES10-19-2020STAGE (FT)MMM
27CIBW1COLUMBIA-AT INTL BOUNDARY10-19-2020DISCHARGE (KAF)20230MM
28LAUW1KETTLE-AT LAURIER10-19-2020DISCHARGE (KAF)9412774
29GCDW1COLUMBIA-GRAND COULEE DAM10-19-2020INFLOW (KAF)2113117396121
30CHJW1COLUMBIA-CHIEF JOSEPH DAM10-19-2020INFLOW (KAF)2188921461102
31TONW1OKANOGAN-NEAR TONASKET10-19-2020DISCHARGE (KAF)27328397
32PATW1METHOW-NEAR PATEROS10-19-2020DISCHARGE (KAF)909991
33WELW1COLUMBIA-WELLS DAM10-19-2020INFLOW (KAF)2224321832102
34CHDW1CHELAN-LAKE CHELAN DAM10-19-2020INFLOW (KAF)308158195
35RRHW1COLUMBIA-ROCKY REACH DAM10-19-2020INFLOW (KAF)2284122321102
36ARDW1ENTIAT-NEAR ARDENVOIR10-19-2020DISCHARGE (KAF)3022135
37PESW1WENATCHEE-AT PESHASTIN10-19-2020DISCHARGE (KAF)423299142
38WANW1COLUMBIA-WANAPUM DAM10-19-2020INFLOW (KAF)2330619791118
39PRWW1COLUMBIA-PRIEST RAPIDS DAM10-19-2020INFLOW (KAF)2330420153116
40KEDW1YAKIMA-KEECHELUS LAKE10-19-2020INFLOW (KAF)5852112
41KADW1KACHESS-KACHESS DAM10-19-2020INFLOW (KAF)5345117
42EASW1YAKIMA-AT EASTON10-19-2020DISCHARGE (KAF)606790
43CLUW1CLE ELUM-CLE ELUM LAKE10-19-2020INFLOW (KAF)123104118
44TNAW1TEANAWAY-BELOW FORKS10-19-2020DISCHARGE (KAF)4139104
45UMTW1YAKIMA-AT UMTANUM10-19-2020DISCHARGE (KAF)248245101
46BUDW1BUMPING-BUMPING LAKE DAM10-19-2020INFLOW (KAF)293680
47CLFW1NACHES-NEAR CLIFFDEL10-19-2020DISCHARGE (KAF)7810376
48RILW1TIETON-RIMROCK LAKE NEAR RIMROCK10-19-2020INFLOW (KAF)586787
49NACW1NACHES-NEAR NACHES10-19-2020DISCHARGE (KAF)697889
50PARW1YAKIMA-NEAR PARKER10-19-2020DISCHARGE (KAF)42746891
51KIOW1YAKIMA-AT KIONA10-19-2020DISCHARGE (KAF)61970188
52IPDI1HENRYS FORK-ISLAND PARK DAM10-19-2020INFLOW (KAF)10011786
53CHEI1FALL RIVER-NEAR CHESTER10-19-2020DISCHARGE (KAF)10811396
54ANTI1HENRYS FORK-AT ST. ANTHONY10-19-2020DISCHARGE (KAF)31834393
55TEAI1TETON-NEAR ST. ANTHONY10-19-2020DISCHARGE (KAF)9510491
56REXI1HENRYS FORK-AT REXBURG10-19-2020DISCHARGE (KAF)41043495
57JLKW4SNAKE-JACKSON LAKE AT DAM10-19-2020INFLOW (KAF)7911369
58JKSW4SNAKE-NEAR JACKSON10-19-2020DISCHARGE (KAF)30631298
59ALPW4SNAKE-NEAR ALPINE10-19-2020DISCHARGE (KAF)36839394
60PLDI1SF SNAKE-PALISADES DAM10-19-2020INFLOW (KAF)60263495
61HEII1SNAKE-NEAR HEISE10-19-2020DISCHARGE (KAF)692599115
62RIDI1WILLOW CREEK-RIRIE DAM10-19-2020INFLOW (KAF)128146
63SIFI1SNAKE-AB EAGLE ROCK NR IDAHO FALLS10-19-2020DISCHARGE (KAF)924821113
64SHYI1SNAKE-NEAR SHELLEY10-19-2020DISCHARGE (KAF)928807115
65SNAI1SNAKE-AT BLACKFOOT10-19-2020DISCHARGE (KAF)853734116
66BFTI1SNAKE-NEAR BLACKFOOT10-19-2020DISCHARGE (KAF)850789108
67PIHI1PORTNEUF-AT POCATELLO10-19-2020DISCHARGE (KAF)576291
68AFRI1SNAKE-AMERICAN FALLS RESERVOIR10-19-2020INFLOW (KAF)15171482102
69MILI1SNAKE-AT MILNER10-19-2020DISCHARGE (KAF)M563M
70HOTI1BRUNEAU-NEAR HOT SPRINGS10-19-2020DISCHARGE (KAF)222880
71SWAI1SNAKE-BELOW SWAN FALLS10-19-2020DISCHARGE (KAF)1769257369
72HWRI1BIG LOST-AT HOWELL RANCH NEAR CHILLY10-19-2020DISCHARGE (KAF)162174
73MACI1BIG LOST-MACKAY RESERVOIR NEAR MACKAY10-19-2020INFLOW (KAF)296522
74HALI1BIG WOOD-AT HAILEY10-19-2020DISCHARGE (KAF)304075
75MAGI1BIG WOOD-MAGIC DAM10-19-2020INFLOW (KAF)182865
76LWRI1LITTLE WOOD-LITTLE WOOD DAM10-19-2020INFLOW (KAF)91559
77OWYO3OWYHEE-OWYHEE DAM10-19-2020INFLOW (KAF)648278
78ARAI1SF BOISE-ANDERSON RANCH DAM10-19-2020INFLOW (KAF)537571
79LUCI1BOISE-LUCKY PEAK DAM10-19-2020INFLOW (KAF)20MM
80BIGI1BOISE-AT GLENWOOD BRIDGE10-19-2020DISCHARGE (KAF)5536153
81PARI1BOISE-NEAR PARMA10-19-2020DISCHARGE (KAF)19721094
82WRMO3MALHEUR-WARM SPRINGS DAM10-19-2020INFLOW (KAF)122257
83BERO3MALHEUR-AGENCY VALLEY DAM10-19-2020INFLOW (KAF)121675
84BULO3BULLY CREEK-BULLY CREEK DAM10-19-2020INFLOW (KAF)62253
85CSDI1NF PAYETTE-CASCADE DAM10-19-2020INFLOW (KAF)849489
86DEDI1DEADWOOD-NEAR LOWMAN10-19-2020INFLOW (KAF)171990
87EMMI1PAYETTE-NEAR EMMETT10-19-2020DISCHARGE (KAF)22934966
88WSRI1WEISER-NEAR WEISER10-19-2020DISCHARGE (KAF)447757
89WEII1SNAKE-AT WEISER10-19-2020DISCHARGE (KAF)2561363970
90BRNI1SNAKE-BROWNLEE DAM10-19-2020INFLOW (KAF)2758374774
91WHBI1SALMON-AT WHITEBIRD10-19-2020DISCHARGE (KAF)1036107996
92TRYO3GRANDE RONDE-TROY10-19-2020DISCHARGE (KAF)24929584
93ANAW1SNAKE-NEAR ANATONE10-19-2020DISCHARGE (KAF)3926569069
94ORFI1CLEARWATER-AT OROFINO10-19-2020DISCHARGE (KAF)59366589
95DWRI1NF CLEARWATER-DWORSHAK DAM10-19-2020INFLOW (KAF)40251179
96SPDI1CLEARWATER-AT SPALDING10-19-2020DISCHARGE (KAF)1089159168
97LGDW1SNAKE-LOWER GRANITE DAM10-19-2020INFLOW (KAF)5013748967
98LGSW1SNAKE-LITTLE GOOSE DAM10-19-2020INFLOW (KAF)5013754166
99LMNW1SNAKE-LOWER MONUMENTAL DAM10-19-2020INFLOW (KAF)5081762867
100IHDW1SNAKE-ICE HARBOR DAM10-19-2020INFLOW (KAF)5081755267
101TCHW1WALLA WALLA-NEAR TOUCHET10-19-2020DISCHARGE (KAF)116114102
102MCDW1COLUMBIA-MCNARY DAM10-19-2020INFLOW (KAF)290662969298
103GIBO3UMATILLA-NEAR GIBBON10-19-2020DISCHARGE (KAF)3733113
104PDTO3UMATILLA-AT PENDLETON10-19-2020DISCHARGE (KAF)8476109
105MYKO3MCKAY CREEK-NEAR PILOT ROCK10-19-2020DISCHARGE (KAF)2316143
106UMAO3UMATILLA-NEAR UMATILLA10-19-2020DISCHARGE (KAF)14981184
107MONO3NF JOHN DAY-AT MONUMENT10-19-2020DISCHARGE (KAF)7710473
108SERO3JOHN DAY-AT SERVICE CK10-19-2020DISCHARGE (KAF)15119577
109JDAO3COLUMBIA-JOHN DAY DAM10-19-2020INFLOW (KAF)302633066699
110MODO3DESCHUTES-AT MOODY NR BIGGS10-19-2020DISCHARGE (KAF)1128139381
111TDAO3COLUMBIA-THE DALLES DAM10-19-2020INFLOW (KAF)307363424190
112PITW1KLICKITAT-NEAR PITT10-19-2020DISCHARGE (KAF)26027794
113HODO3HOOD-NEAR TUCKER BRIDGE10-19-2020DISCHARGE (KAF)255226113
114UNDW1WHITE SALMON-NEAR UNDERWOOD10-19-2020DISCHARGE (KAF)20223685
115BONO3COLUMBIA-BONNEVILLE DAM10-19-2020INFLOW (KAF)314283636486